This is the latest recevied weather packets stored in our database for station/object WB9FIU. If no packets are shown the sender has not sent any weather packets the latest 1 day(s).
| Time | Temp. | Humidity | Pressure | Rain* | Wind** | Luminosity | Snow |
|---|---|---|---|---|---|---|---|
| 1778078161 | 11.11° C | 70% | 1012.9 hPa | 0 mm | - | - | - |
| 1778078041 | 11.11° C | 69% | 1012.7 hPa | 0 mm | - | - | - |
| 1778077981 | 11.11° C | 68% | 1012.7 hPa | 0 mm | - | - | - |
| 1778077861 | 11.11° C | 68% | 1012.7 hPa | 0 mm | - | - | - |
| 1778077322 | 11.11° C | 69% | 1012.8 hPa | 0 mm | - | - | - |
| 1778076542 | 11.11° C | 71% | 1012.4 hPa | 0 mm | - | - | - |
| 1778076422 | 10.56° C | 72% | 1012.2 hPa | 0 mm | - | - | - |
| 1778075822 | 10.56° C | 74% | 1012.2 hPa | 0 mm | - | - | - |
| 1778075642 | 10.56° C | 72% | 1012.1 hPa | 0 mm | - | - | - |
| 1778075403 | 10.56° C | 74% | 1012.1 hPa | 0 mm | - | - | - |
| 1778074922 | 10° C | 77% | 1011.9 hPa | 0 mm | - | - | - |
| 1778074622 | 10° C | 78% | 1011.9 hPa | 0 mm | - | - | - |
| 1778074501 | 10° C | 75% | 1012 hPa | 0 mm | - | - | - |
| 1778074441 | 10° C | 75% | 1012.1 hPa | 0 mm | - | - | - |
| 1778074381 | 10° C | 74% | 1012 hPa | 0 mm | - | - | - |
| 1778074321 | 10° C | 75% | 1012 hPa | 0 mm | - | - | - |
| 1778074261 | 10° C | 77% | 1012 hPa | 0 mm | - | - | - |
| 1778074201 | 10° C | 78% | 1012.1 hPa | 0 mm | - | - | - |
| 1778074142 | 10° C | 80% | 1012.2 hPa | 0 mm | - | - | - |
| 1778073902 | 10° C | 79% | 1012.2 hPa | 0 mm | - | - | - |
| 1778073841 | 10° C | 78% | 1012.3 hPa | 0 mm | - | - | - |
| 1778073183 | 10° C | 83% | 1012.3 hPa | 0 mm | - | - | - |
| 1778072822 | 9.44° C | 81% | 1012.2 hPa | 0 mm | - | - | - |
| 1778072762 | 9.44° C | 82% | 1012.2 hPa | 0 mm | - | - | - |
| 1778072642 | 9.44° C | 83% | 1012.3 hPa | 0 mm | - | - | - |
* Rain latest hour (hover to see other rain measurements)
** Current wind speed in m/s (hover to see current wind gust speed)